GLOBALSTAR M022 [-]

Last updated on Thu Dec 28 2023 00:02:57 GMT+0000 (Coordinated Universal Time)

1 25649U 99012A 23361.37755660 -.00000016 00000+0 84672-3 0 9998 2 25649 52.0061 312.8820 0002187 176.2219 357.9890 12.02475016111677

Satellite not in orbit

GLOBALSTAR M022 [-]